HULIANWANG DIGUI-85 (65820 NORAD) Tracking and Keplerian Element Data

This shows tracking and keplerian element data for the satellite.

Feedback or suggestion? Click here.




ElementValue
Catalog65820
NameHULIANWANG DIGUI-85
Epoch Orbit1123
Epoch Day354.24406774
Epoch Year2025
RAAN104.3075
Inclination86.4989
Eccentricity0.0001256
Argument of Perigee93.7847
Mean Anonmoly266.3431
Mean Motion13.24415239
Decay Rate4.8E-07
L11 65820U 25220D 25354.24406774 .00000048 00000+0 78574-4 0 9991
L22 65820 86.4989 104.3075 0001256 93.7847 266.3431 13.24415239 11235



Live tracking and technical data element details for HULIANWANG DIGUI-85 (NORAD 65820). HULIANWANG DIGUI-85 can be tracked NOW for your location showing map with azimuth and elevation plus other details from your city location.







IsCatalogInMostPopularTable: catalog: 65820, numindb: 13
Update: records affected: 1



GetName: 65820 HULIANWANG DIGUI-85

Hit Count: updated at: Mon, 20 Apr 2026 10:26:49 GMT